Wind_Speed
10 10 10 10 9 8 8 8 8 8 8 8 7 8 7 8 8 8 8 9 9 9 9 10 10 10 10 10 10 9 9 10 10 10 10 10 10 10 10 9 9 9 9
10 10 11 11 11 10 10 9 10 9 9 8 8 8 8 8 9 9 9 9 9 10 10 10 10 10 10 11 11 11 11 11 11 10 10 10 10 11 10 10 10 10 9
11 11 12 12 11 11 11 11 10 10 9 8 8 8 9 9 9 9 9 9 10 10 11 11 11 11 11 12 12 12 12 12 12 12 11 11 11 11 11 11 11 11 11
12 11 12 12 11 11 11 11 10 9 9 9 10 10 10 10 10 10 10 10 11 11 11 11 11 12 12 13 13 13 13 13 13 12 12 11 11 11 11 11 12 12 12
13 12 12 12 11 11 11 11 10 10 10 10 10 11 11 11 11 11 11 11 12 12 12 11 12 13 13 13 13 13 13 12 12 12 12 12 11 11 11 11 12 12 13
14 13 12 12 11 11 10 11 11 11 11 11 11 11 11 11 11 12 12 13 13 13 13 12 12 13 13 13 14 14 14 13 13 13 13 12 12 12 12 12 13 13 13
14 13 13 13 13 12 11 11 12 12 12 12 12 12 12 12 13 13 14 14 14 14 14 14 14 14 14 14 14 13 13 14 14 14 13 13 13 13 13 13 14 14 14
15 15 14 14 13 12 13 13 12 12 13 13 13 13 14 14 14 14 15 15 15 15 15 15 16 16 15 15 14 14 14 14 14 14 14 14 14 14 14 15 15 15 15
16 15 15 15 14 14 14 14 14 14 14 14 14 14 15 15 15 15 16 15 16 16 16 16 16 16 16 16 16 15 15 16 15 15 15 15 16 15 15 16 16 16 16
16 15 15 15 15 15 15 15 14 14 15 15 15 15 16 16 16 17 17 17 17 18 17 17 17 16 16 16 17 17 16 16 16 16 16 16 17 17 17 16 16 16 17
15 14 15 16 15 16 16 16 15 15 15 15 16 17 17 17 17 18 19 18 18 18 18 18 18 17 17 18 18 18 17 17 17 17 17 17 17 17 17 17 17 17 17
15 15 15 14 15 15 15 15 15 15 16 16 17 18 18 18 19 19 19 19 19 19 20 19 18 19 18 19 19 19 19 19 19 19 18 18 18 18 18 18 18 18 18
15 16 17 15 15 15 15 15 15 16 16 18 19 18 19 19 20 20 20 20 20 20 21 21 20 20 20 20 20 20 20 20 21 21 20 19 19 19 19 19 20 20 20
14 15 16 16 16 15 15 15 15 16 17 19 19 20 19 20 20 21 20 21 21 21 21 21 20 21 21 21 21 21 21 20 21 21 20 20 20 20 20 20 20 20 20
15 15 16 17 17 17 16 16 16 16 17 19 19 20 21 21 21 22 22 21 22 23 23 23 23 22 21 21 21 22 22 22 22 21 21 20 20 20 21 21 21 21 21
16 16 17 17 17 17 17 17 17 18 18 19 20 21 22 22 22 22 23 23 23 24 24 24 24 23 22 22 22 22 22 22 23 22 21 21 21 21 21 22 21 21 21
16 16 18 18 17 16 17 17 18 19 19 20 21 22 22 23 24 24 23 23 24 24 25 25 25 26 24 23 23 23 22 22 22 22 21 21 21 21 21 22 22 22 22
17 17 19 20 18 17 18 18 19 20 21 21 22 22 22 23 23 24 23 24 24 24 24 25 26 26 25 23 23 23 23 22 22 23 22 22 22 22 22 22 23 22 22
19 18 20 20 19 19 18 19 20 21 21 21 22 22 21 22 23 23 23 24 25 26 26 26 26 25 25 24 24 24 24 23 23 24 23 22 22 23 23 23 23 23 22
19 19 20 19 19 19 19 19 20 21 21 21 21 22 22 22 22 23 23 24 25 25 26 26 26 25 25 25 25 24 25 24 24 24 24 24 23 24 24 24 24 24 24
19 19 19 19 19 19 18 18 20 20 20 21 22 22 21 21 22 22 22 23 23 23 25 26 27 26 26 26 25 25 24 24 24 24 24 24 25 25 25 25 25 26 25
20 19 19 19 19 18 17 18 20 20 19 20 20 20 20 21 22 22 22 23 23 24 23 24 25 26 26 26 26 25 24 25 25 24 24 23 24 25 25 25 26 26 27
20 20 20 19 18 18 19 20 20 18 18 18 19 19 20 21 21 21 22 22 23 23 23 24 25 26 26 26 25 25 25 24 24 24 24 24 25 25 25 27 27 26 27
20 20 20 19 18 18 19 20 19 18 18 18 19 19 20 20 20 20 20 21 22 22 22 23 24 25 26 26 25 25 24 23 24 24 24 24 25 26 26 26 28 27 27
19 20 19 19 19 19 19 19 19 18 17 18 18 19 20 19 19 18 19 20 20 21 22 22 24 24 24 25 25 24 24 24 24 25 25 25 25 26 26 27 28 28 28
19 20 20 19 18 18 19 19 19 17 17 17 18 18 18 19 19 19 19 20 20 21 21 22 22 22 22 23 24 24 24 25 25 25 26 26 25 25 26 27 29 29 29
Wind_Direction
323 319 317 316 308 297 295 293 298 305 306 303 305 300 299 300 301 300 296 292 290 291 290 288 287 285 282 279 278 276 276 276 277 274 275 275 274 271 269 267 265 263 256
317 314 315 310 304 299 296 291 290 295 297 295 298 296 294 296 297 296 293 290 288 288 290 288 285 285 282 279 277 278 279 278 279 276 275 275 273 271 269 265 262 259 255
313 312 311 308 303 300 298 295 292 289 290 293 295 294 290 292 291 289 289 288 288 286 285 283 281 280 280 280 279 279 278 280 280 278 277 275 271 268 265 263 263 260 256
309 307 306 308 306 302 301 295 288 287 287 290 290 289 288 289 289 285 285 284 286 286 282 279 278 276 276 278 279 280 279 281 281 277 275 276 272 268 265 264 263 261 258
307 306 303 305 307 306 303 296 291 285 286 288 288 285 286 286 285 284 281 281 283 283 280 277 276 274 275 278 280 281 280 280 279 278 276 277 274 269 266 264 264 263 260
304 301 299 300 303 302 298 293 293 288 282 284 285 283 284 282 284 285 282 278 281 281 277 276 276 276 276 277 277 279 278 277 279 280 278 277 274 270 267 267 267 265 262
298 295 294 295 296 297 292 289 291 285 281 283 283 280 279 279 280 281 281 277 277 277 275 273 274 277 278 276 275 274 275 277 280 278 277 277 274 271 269 268 268 266 264
296 291 291 292 290 290 291 288 289 285 282 282 283 278 277 277 276 276 280 278 273 271 268 269 276 274 274 276 273 273 274 276 277 275 275 274 273 271 269 268 268 267 263
295 289 288 288 290 291 291 291 287 283 280 278 280 276 274 275 275 274 273 276 273 270 269 270 272 271 272 272 272 273 273 273 274 274 273 273 272 271 270 268 268 268 264
295 289 288 287 287 287 286 285 285 282 277 276 280 279 274 274 273 272 269 271 272 270 267 268 268 269 270 271 270 270 272 273 271 272 273 271 271 271 269 268 269 268 266
297 291 288 285 285 283 283 284 282 281 279 277 277 279 275 275 276 273 270 271 272 271 267 265 266 266 267 269 269 271 272 273 272 271 271 270 270 269 268 269 269 269 267
294 290 289 287 287 286 285 284 280 279 279 278 278 279 276 275 276 274 270 268 269 267 266 263 267 267 266 267 270 272 271 272 271 270 269 269 268 268 269 269 270 269 268
289 288 287 288 289 287 284 283 280 278 279 281 279 280 279 277 274 273 271 268 266 265 262 262 265 264 266 268 269 271 271 272 272 270 270 269 267 266 267 268 268 268 266
290 288 290 291 288 288 287 282 279 277 277 281 279 276 278 278 276 273 272 268 264 264 265 264 266 268 268 269 268 270 269 271 275 272 270 268 266 266 266 267 267 267 266
288 289 289 289 286 284 282 279 278 277 279 280 281 276 276 276 276 274 271 268 264 264 265 264 266 269 269 267 268 271 271 271 271 269 268 267 265 265 265 266 267 267 266
293 290 288 288 285 282 280 280 279 281 281 283 282 280 278 277 277 277 272 267 267 266 265 264 265 264 269 269 269 271 271 271 267 268 266 266 266 266 266 266 267 267 267
296 292 287 285 283 279 280 280 283 284 283 286 286 282 279 278 278 276 275 270 268 266 264 264 265 262 264 266 269 272 271 268 266 267 266 266 266 266 266 266 267 268 267
303 296 291 289 286 283 282 281 284 287 285 286 284 283 281 279 279 278 277 275 269 267 264 264 263 262 262 265 267 269 269 265 266 266 267 267 265 265 266 266 267 267 266
309 301 295 292 289 288 286 286 287 288 287 285 284 284 282 281 280 279 278 275 271 270 267 266 263 262 262 264 266 267 267 265 268 267 266 267 266 265 265 265 266 266 264
310 305 297 294 292 291 290 288 290 290 286 284 284 284 282 281 279 278 278 278 275 271 269 265 261 264 265 266 266 265 266 265 267 267 267 268 268 265 264 265 265 264 263
309 307 302 298 294 295 294 291 290 290 288 286 284 284 284 282 279 279 279 279 277 273 270 266 262 264 265 265 265 263 263 264 265 266 267 269 269 266 264 265 265 264 263
307 306 305 301 297 295 294 294 295 291 288 288 287 285 285 284 282 280 280 280 278 274 270 268 265 264 264 263 264 262 260 262 265 267 268 270 269 267 266 264 264 263 263
310 307 305 300 295 295 295 293 291 294 294 292 288 287 287 286 284 282 280 280 279 278 273 270 269 266 265 264 263 263 262 260 261 266 267 268 267 268 268 266 265 265 264
311 310 310 305 302 301 297 292 293 292 294 295 291 289 288 287 286 285 282 281 280 279 276 273 271 268 266 265 266 266 262 261 261 262 263 266 267 268 268 268 266 264 264
314 314 313 311 306 303 301 298 295 294 294 292 290 290 289 289 287 286 286 283 283 282 279 276 273 269 266 265 267 267 266 264 263 262 263 265 267 268 268 269 267 265 264
317 317 315 315 312 307 302 301 299 298 297 293 290 290 291 289 286 286 287 288 287 285 280 276 272 268 266 267 267 267 266 266 266 265 265 265 267 267 267 269 267 265 264
Height
5870 5869 5868 5868 5867 5867 5866 5866 5866 5865 5865 5866 5866 5866 5866 5866 5866 5866 5866 5866 5866 5866 5867 5867 5868 5868 5868 5869 5869 5869 5870 5870 5871 5871 5872 5873 5873 5873 5874 5874 5875 5875 5876
5869 5868 5867 5866 5866 5865 5865 5864 5864 5864 5864 5864 5864 5864 5864 5864 5864 5864 5864 5864 5864 5864 5865 5865 5866 5866 5866 5867 5867 5868 5868 5869 5869 5869 5870 5870 5871 5871 5872 5872 5873 5873 5874
5867 5866 5866 5865 5864 5863 5863 5862 5862 5862 5862 5862 5862 5862 5862 5862 5862 5862 5862 5862 5862 5862 5863 5863 5864 5864 5865 5865 5865 5866 5866 5867 5867 5867 5868 5868 5868 5869 5870 5870 5871 5871 5872
5865 5864 5864 5863 5862 5861 5861 5860 5860 5860 5859 5859 5859 5860 5860 5860 5860 5860 5860 5860 5860 5860 5860 5861 5861 5862 5862 5863 5863 5864 5864 5864 5865 5865 5866 5866 5866 5867 5867 5868 5868 5869 5869
5863 5862 5862 5861 5860 5859 5859 5858 5858 5858 5858 5857 5857 5858 5858 5858 5858 5858 5858 5857 5857 5858 5858 5858 5859 5859 5859 5860 5861 5861 5862 5862 5863 5863 5863 5864 5864 5864 5865 5865 5866 5866 5867
5860 5860 5859 5858 5857 5857 5856 5856 5856 5855 5855 5855 5855 5855 5855 5855 5855 5855 5855 5855 5855 5855 5855 5855 5855 5856 5856 5857 5858 5858 5859 5859 5860 5860 5861 5861 5862 5862 5862 5863 5863 5864 5864
5857 5856 5856 5855 5855 5854 5854 5853 5853 5853 5852 5852 5853 5853 5853 5853 5853 5852 5852 5852 5852 5852 5852 5853 5852 5853 5853 5854 5854 5855 5856 5856 5856 5857 5858 5858 5859 5859 5859 5860 5861 5861 5861
5854 5853 5853 5852 5851 5851 5851 5850 5850 5850 5850 5850 5850 5850 5850 5850 5850 5850 5849 5849 5849 5849 5849 5850 5849 5849 5850 5851 5851 5852 5852 5852 5853 5854 5855 5855 5855 5856 5856 5857 5857 5858 5858
5850 5849 5849 5848 5848 5848 5847 5847 5847 5847 5847 5847 5847 5847 5847 5846 5846 5846 5846 5846 5846 5846 5846 5846 5847 5847 5847 5847 5848 5848 5849 5849 5849 5850 5851 5852 5852 5853 5853 5853 5854 5854 5855
5846 5845 5845 5844 5844 5844 5844 5844 5843 5843 5843 5843 5843 5843 5843 5843 5843 5843 5843 5843 5843 5842 5843 5843 5843 5843 5843 5844 5844 5845 5845 5846 5846 5846 5847 5847 5848 5849 5849 5850 5850 5851 5851
5842 5842 5841 5840 5840 5840 5840 5840 5840 5840 5840 5840 5840 5840 5839 5839 5839 5839 5839 5839 5839 5838 5838 5839 5839 5839 5840 5840 5840 5841 5841 5842 5842 5842 5843 5843 5844 5845 5845 5846 5846 5847 5847
5839 5838 5837 5837 5837 5837 5837 5836 5836 5836 5836 5836 5836 5835 5835 5835 5835 5834 5834 5834 5834 5834 5834 5835 5835 5835 5836 5836 5837 5837 5837 5838 5838 5838 5839 5839 5840 5840 5841 5842 5842 5842 5843
5836 5835 5835 5835 5834 5833 5833 5833 5833 5833 5833 5833 5832 5831 5831 5830 5830 5830 5829 5830 5830 5830 5830 5830 5831 5831 5832 5832 5833 5833 5833 5834 5834 5834 5834 5835 5835 5836 5836 5837 5838 5838 5838
5833 5832 5832 5831 5830 5830 5829 5829 5829 5829 5829 5829 5828 5827 5826 5826 5825 5826 5825 5825 5825 5826 5826 5826 5827 5827 5827 5828 5828 5829 5829 5829 5829 5829 5830 5830 5831 5831 5832 5832 5833 5834 5834
5829 5829 5828 5827 5827 5826 5825 5825 5826 5825 5825 5824 5823 5823 5822 5822 5821 5821 5821 5820 5820 5820 5821 5822 5822 5823 5823 5823 5823 5824 5824 5824 5824 5824 5824 5825 5826 5826 5827 5828 5828 5829 5829
5826 5825 5824 5823 5823 5822 5822 5821 5821 5821 5820 5820 5819 5818 5817 5817 5816 5816 5816 5815 5815 5815 5816 5816 5817 5817 5818 5818 5818 5819 5819 5819 5819 5819 5819 5820 5821 5821 5822 5823 5823 5823 5824
5822 5820 5819 5818 5818 5818 5817 5817 5816 5816 5815 5815 5814 5813 5812 5812 5811 5810 5810 5810 5810 5810 5810 5810 5811 5811 5812 5813 5813 5813 5813 5813 5814 5814 5814 5815 5816 5816 5816 5817 5818 5818 5818
5818 5817 5815 5814 5812 5813 5812 5812 5812 5811 5810 5809 5808 5807 5806 5806 5805 5804 5804 5804 5804 5804 5804 5805 5805 5806 5806 5807 5807 5808 5807 5808 5809 5809 5809 5810 5810 5811 5811 5811 5812 5812 5813
5814 5813 5812 5810 5809 5808 5807 5807 5806 5805 5804 5803 5802 5801 5800 5799 5799 5798 5798 5798 5797 5798 5798 5799 5799 5800 5801 5801 5801 5802 5802 5803 5803 5803 5803 5804 5804 5805 5805 5806 5806 5807 5807
5811 5809 5807 5806 5804 5803 5802 5801 5800 5799 5798 5797 5796 5795 5795 5794 5793 5793 5793 5792 5791 5791 5792 5792 5793 5793 5794 5795 5795 5796 5797 5797 5797 5797 5798 5798 5798 5798 5799 5799 5800 5801 5801
5807 5805 5803 5801 5800 5798 5797 5796 5795 5794 5792 5791 5790 5790 5789 5788 5788 5787 5786 5786 5785 5785 5785 5786 5786 5787 5787 5788 5789 5789 5790 5791 5791 5791 5791 5791 5791 5792 5792 5793 5793 5794 5795
5803 5801 5799 5797 5795 5793 5791 5790 5789 5788 5786 5785 5785 5784 5783 5782 5781 5781 5780 5780 5779 5779 5778 5779 5779 5780 5780 5781 5782 5783 5784 5785 5784 5785 5785 5785 5785 5785 5785 5786 5786 5787 5787
5799 5796 5794 5792 5790 5788 5786 5785 5783 5782 5781 5780 5779 5778 5778 5776 5774 5774 5773 5773 5773 5772 5772 5772 5772 5773 5774 5774 5774 5775 5776 5777 5778 5778 5778 5778 5778 5778 5778 5778 5779 5779 5779
5794 5792 5789 5787 5785 5783 5781 5779 5778 5777 5776 5775 5774 5773 5772 5770 5769 5768 5767 5767 5766 5766 5765 5766 5766 5766 5766 5767 5767 5768 5769 5770 5771 5772 5772 5771 5771 5771 5771 5771 5771 5771 5772
5790 5787 5784 5781 5780 5778 5776 5774 5773 5772 5771 5769 5768 5767 5766 5764 5763 5762 5762 5761 5760 5759 5759 5759 5759 5759 5760 5760 5761 5761 5762 5763 5763 5764 5765 5764 5764 5764 5763 5763 5763 5763 5764
5787 5784 5780 5778 5775 5773 5771 5770 5769 5767 5765 5764 5763 5762 5761 5759 5758 5757 5756 5755 5755 5754 5753 5753 5752 5752 5753 5754 5754 5754 5755 5755 5756 5757 5757 5757 5756 5756 5755 5755 5755 5755 5755